This is the latest recevied weather packets stored in our database for station/object W0WFX-2. If no packets are shown the sender has not sent any weather packets the latest 10 day(s).
| Time | Temp. | Humidity | Pressure | Rain* | Wind** | Luminosity | Snow |
|---|---|---|---|---|---|---|---|
| 1787856391 | 30.56° C | 49% | 1019.3 hPa | 0 mm | - | 755 W/m² | - |
| 1787856087 | 31.11° C | 46% | 1019.4 hPa | 0 mm | - | 779 W/m² | - |
| 1787855782 | 30.56° C | 45% | 1019.6 hPa | 0 mm | - | 767 W/m² | - |
| 1787855477 | 30.56° C | 45% | 1019.5 hPa | 0 mm | - | 763 W/m² | - |
| 1787855172 | 31.11° C | 43% | 1019.5 hPa | 0 mm | - | 745 W/m² | - |
| 1787854867 | 30° C | 47% | 1019.6 hPa | 0 mm | - | 777 W/m² | - |
| 1787854567 | 30° C | 47% | 1019.5 hPa | 0 mm | - | 763 W/m² | - |
| 1787854261 | 30° C | 44% | 1019.4 hPa | 0 mm | - | 766 W/m² | - |
| 1787853956 | 30° C | 47% | 1019.8 hPa | 0 mm | - | 769 W/m² | - |
| 1787853654 | 30.56° C | 44% | 1019.5 hPa | 0 mm | - | 773 W/m² | - |
| 1787853350 | 30.56° C | 43% | 1019.4 hPa | 0 mm | - | 777 W/m² | - |
| 1787853045 | 30° C | 45% | 1019.7 hPa | 0 mm | - | 770 W/m² | - |
| 1787852745 | 30° C | 49% | 1019.8 hPa | 0 mm | - | 177 W/m² | - |
| 1787852443 | 30° C | 50% | 1019.9 hPa | 0 mm | - | 233 W/m² | - |
| 1787852138 | 30° C | 48% | 1019.9 hPa | 0 mm | - | 852 W/m² | - |
| 1787851833 | 30° C | 46% | 1019.9 hPa | 0 mm | - | 842 W/m² | - |
| 1787851533 | 29.44° C | 51% | 1019.8 hPa | 0 mm | - | 784 W/m² | - |
| 1787851232 | 28.89° C | 53% | 1020 hPa | 0 mm | - | 757 W/m² | - |
| 1787850928 | 28.89° C | 51% | 1019.9 hPa | 0 mm | - | 657 W/m² | - |
| 1787850625 | 28.33° C | 52% | 1019.7 hPa | 0 mm | - | 822 W/m² | - |
| 1787850319 | 28.89° C | 54% | 1019.8 hPa | 0 mm | - | 230 W/m² | - |
| 1787850015 | 29.44° C | 55% | 1020.2 hPa | 0 mm | - | 179 W/m² | - |
| 1787849714 | 28.89° C | 55% | 1019.9 hPa | 0 mm | - | 763 W/m² | - |
| 1787849410 | 27.78° C | 56% | 1020 hPa | 0 mm | - | 718 W/m² | - |
| 1787849108 | 28.33° C | 56% | 1020.1 hPa | 0 mm | - | 115 W/m² | - |
* Rain latest hour (hover to see other rain measurements)
** Current wind speed in m/s (hover to see current wind gust speed)